Location: Aleksandria
(48.6657°N, 33.1137°E)
Time: 13:46:14
(UTC+03:00)

OTV 5 (USA 277) - Visible Passes

Search period start: 17 August 2019 00:00
Search period end: 27 August 2019 00:00
Orbit: 305 x 329 km, 54.5° (Epoch: 11 August)

Date Brightness Start Highest point End Pass type
(mag) Time Alt. Az. Time Alt. Az. Time Alt. Az.
17 Aug ? 02:57:16 22° N 02:57:16 22° N 02:59:21 10° NE visible
17 Aug ? 04:29:38 10° NW 04:32:00 29° NNE 04:34:23 10° E visible
18 Aug ? 03:11:22 20° NNW 03:11:57 22° N 03:14:07 10° ENE visible
18 Aug ? 04:44:08 10° NW 04:46:42 45° NNE 04:49:16 10° E visible
19 Aug ? 03:25:36 18° NNW 03:26:44 25° N 03:29:01 10° ENE visible
19 Aug ? 04:58:40 10° WNW 05:01:18 88° SW 05:03:57 10° ESE visible
20 Aug ? 03:40:05 20° NW 03:41:28 35° NNE 03:43:57 10° E visible
21 Aug ? 03:54:56 28° NW 03:56:07 63° NNE 03:58:45 10° ESE visible
22 Aug ? 04:10:21 51° WSW 04:10:41 57° SW 04:13:17 10° SE visible
23 Aug ? 04:26:30 16° S 04:26:30 16° S 04:27:21 10° SSE visible
24 Aug ? 20:59:38 10° SSW 21:01:56 26° SE 21:02:09 26° SE visible
25 Aug ? 21:13:45 10° SW 21:16:23 63° SE 21:17:21 33° ENE visible
26 Aug ? 21:28:20 10° WSW 21:30:57 59° NNW 21:32:04 29° NE visible
